User: anonymous   Login
Location: La Pernelle
(49.6188°N, 1.2999°W)
Time: 07:44:48
(UTC+00:00)
Language:

Cosmos 1697 Rocket - Orbit

View from above orbital plane
View from above orbital plane
View from above satellite
View from above satellite

Ground track
Ground track

The orbit data is extracted from the following two-line orbital elements,

1 16182U 85097B   21267.64428675  .00000201  00000-0  12552-3 0  9998
2 16182  71.0041 324.8208 0009097 228.3806 252.4573 14.16261088856839
Epoch (UTC): 24 September 2021 15:27:46
Eccentricity: 0.0009097
inclination: 71.0041°
perigee height: 831 km
apogee height: 844 km
right ascension of ascending node: 324.8208°
argument of perigee: 228.3806°
revolutions per day: 14.16261088
mean anomaly at epoch: 252.4573°
orbit number at epoch: 85683

The dashed part of the orbit path shows where the satellite is in the earth's shadow,  

DLR